CZ-6A DEB, 56591

Orbit data source: Space-Track

CZ-6A DEB, 56591 is space debris in SSO originally from a launch on Fri, 11 Nov 2022 UTC launched from the Taiyaun Space Center, China (TSC). Debris objects in space refer to the collection of defunct objects orbiting the Earth. Examples of debris include non-operational satellites, rocket bodies, and fragments generated from explosions, collisions, or faulty payload assembly.

Loading next visibility...
Identifier
56591, 2022-151ADP
Orbit
SSO
Country
Flag of CNCN / PRC
Related business
Manufacturer
SAST
Mission
Spacecraft
Bus & Motor
Unknown
Mass
Unknown
Launch date (UTC)
2022-11-11 (4 years ago)
Launch vehicle
Unknown
Launch site
Taiyaun Space Center, China (TSC)
Object type
Payload
Rocket body
Debris
Shape & HBR
Unknown shape, 0.1 m
Radar Cross Section
Small (<0.1 m²)

Expand to show TLE details & history
Last TLE update: 13 hours ago

TLE from 13 hours ago
0 CZ-6A DEB
1 56591U 22151ADP 26236.55688134  .00000056  00000-0  98521-4 0  9996
2 56591  99.0956 153.7990 0289886 125.1483 237.7188 13.57815111165253
Epoch: 2026-08-24T13:21Z
TLE epoch observation values (Epoch: 2026-08-24T13:21:54.547Z)
Latitude
-0.00004°
Longitude
-19.51515°
Altitude
1,165.747 km
Speed
7.212 km/s
True Right ascension
10h 15m 11s
True Declination
0° 00' 00"
Sunlit
Object was in daylight at epoch
Visualization orbit readout
Latitude
Unknown
Longitude
Unknown
Altitude
Unknown
Speed
Unknown
Apparent Right ascension
Unknown
Apparent Declination
Unknown
Sunlit
N/A
Visualization observer readout
Local Sidereal Time
17:54:35
Azimuth
Unknown
Elevation
Unknown
Doppler factor
Unknown
Orbital elements
Apogee altitude
1,255.968 km
Perigee altitude
825.833 km
Semi-major axis
7,419.037 km
Eccentricity
0.02899
Inclination
99.0956°
RAAN
153.799°
Arg. of periapsis
125.1483°
True anomaly
234.9648°
Mean anomaly
237.7188°
Eccentric anomaly
236.3364°
Mean motion
3.39642 °/min
Orbital period
105.99 mins
BSTAR
0.000098521
Loading maneuver chart data...
Computing Atmospheric mass density...

Documentation

Showing up to 5 results
|